DW6267 Weather Reports


Display with metric or nautical units.
time (UTC)temp
F
wind
direction
speed
MPH
gust
MPH
rain 1hr
in
rain 24hr
in
rain mn
in
humidity
%
barometer
mb
20260507210341 71 59 1.0 0.0 0.00 0.00 0.00 35 1011.6
20260507200344 70 141 1.0 0.0 0.00 0.00 0.00 37 1012.3
20260507190336 67 50 0.0 0.0 0.00 0.00 0.00 43 1013.1
20260507180359 64 61 0.0 0.0 0.00 0.00 0.00 48 1013.1
20260507170349 57 54 2.0 0.0 0.00 0.00 0.00 54 1014.1
20260507160401 52 63 0.0 0.0 0.00 0.00 0.00 63 1014.2
20260507150354 46 52 0.0 0.0 0.00 0.00 0.00 75 1014.7
20260507140338 42 52 0.0 0.0 0.00 0.00 0.00 82 1015.0
20260507130332 44 21 0.0 0.0 0.00 0.00 0.00 74 1014.0
20260507120341 50 7 0.0 0.0 0.00 0.00 0.00 64 1014.2
20260507110410 51 65 3.0 0.0 0.00 0.00 0.00 63 1014.8
20260507100349 52 348 4.0 0.0 0.00 0.00 0.00 59 1014.1
20260507090349 52 295 4.0 0.0 0.00 0.00 0.00 58 1014.1
20260507080400 53 306 2.0 0.0 0.00 0.00 0.00 59 1013.7
20260507070340 53 283 3.0 0.0 0.00 0.00 0.00 61 1014.2
20260507060338 54 335 3.0 0.0 0.00 0.00 0.00 61 1014.5
20260507050340 54 23 1.0 0.0 0.00 0.00 0.00 61 1014.4
20260507040337 55 327 3.0 0.0 0.00 0.00 0.00 58 1014.3
20260507030335 57 224 2.0 0.0 0.00 0.00 0.00 57 1013.0
20260507020335 60 5 2.0 0.0 0.00 0.00 0.00 53 1013.1
20260507010348 64 341 3.0 0.0 0.00 0.00 0.00 44 1012.7
20260507000336 66 296 4.0 0.0 0.00 0.00 0.00 41 1013.2
20260506230358 68 304 3.0 0.0 0.00 0.00 0.00 39 1012.9
20260506220348 69 244 4.0 0.0 0.00 0.00 0.00 34 1012.8